STARLINK-5887, 56349

Orbit data source: Space-Track

STARLINK-5887, 56349 is a payload satellite owned by SpaceX/Seattle (US) in SSO that was launched on Thu, 27 Apr 2023 UTC via an FALCON 9 launch vehicle from the Air Force Western Test Range (AFWTR). Payload-class satellites include a variety of spacecraft equipped with specific instruments for various scientific and technological missions. These include communications satellites like Starlink; space stations such as the ISS; scientific satellites like the Hubble; Earth observation satellites from companies like Planet Labs, Umbra, and HawkEye 360; GPS; miniature CubeSats for education and research; and military/defense satellites.

Loading next visibility...
Identifier
56349, 2023-058AJ
Orbit
SSO
Country
Flag of USUS
Related business
Manufacturer
SpaceX/Seattle
Mission
Operational Commercial Communications
Bus & Motor
STARLINK, Unknown motor
Mass
300 kg wet, ~260 kg dry
Launch date (UTC)
2023-04-27 (3 years ago)
Launch vehicle
FALCON 9
Launch site
Air Force Western Test Range (AFWTR)
Object type
Payload
Rocket body
Debris
Shape & HBR
Box + 1 Pan, 10.1 m
Radar Cross Section
11.087 m², Large (>1 m²)

Expand to show TLE details & history
Last TLE update: 2 days ago

TLE from 2 days ago
0 STARLINK-5887
1 56349U 23058AJ  26171.41271170  .00000550  00000-0  42076-4 0  9998
2 56349  97.3373 170.3171 0001301  96.5090 263.6285 15.05655079173584
Epoch: 2026-06-20T09:54Z
TLE epoch observation values (Epoch: 2026-06-20T09:54:18.290Z)
Latitude
-0.00012°
Longitude
113.11321°
Altitude
552.669 km
Speed
7.585 km/s
True Right ascension
11h 21m 16s
True Declination
0° 00' 00"
Sunlit
Object was in daylight at epoch
Visualization orbit readout
Latitude
Unknown
Longitude
Unknown
Altitude
Unknown
Speed
Unknown
Apparent Right ascension
Unknown
Apparent Declination
Unknown
Sunlit
N/A
Visualization observer readout
Local Sidereal Time
21:30:53
Azimuth
Unknown
Elevation
Unknown
Doppler factor
Unknown
Orbital elements
Apogee altitude
547.379 km
Perigee altitude
545.577 km
Semi-major axis
6,924.615 km
Eccentricity
0.00013
Inclination
97.3373°
RAAN
170.3171°
Arg. of periapsis
96.509°
True anomaly
263.61368°
Mean anomaly
263.6285°
Eccentric anomaly
263.62109°
Mean motion
3.7666 °/min
Orbital period
95.58 mins
BSTAR
0.000042076
Loading maneuver chart data...
Computing Atmospheric mass density...
Loading historical data...
Loading historical data...
Loading historical data...
Loading historical data...
Loading historical data...
Loading historical data...
Loading historical data...

Documentation

Showing up to 5 results
|